Change the Weather History Date:

Thursday, January 31, 2013

  Actual Average (KMTJ) Record (KMTJ)
Temperature  
Mean Temperature 36 °F 29 °F  
Max Temperature 46 °F 40 °F 57 °F (2003)
Min Temperature 26 °F 17 °F -7 °F (2002)
Degree Days  
Heating Degree Days 29 36  
Month to date heating degree days 1197  
Since 1 July heating degree days 3805  
Cooling Degree Days 0 0  
Month to date cooling degree days 0  
Year to date cooling degree days 0  
Moisture  
Dew Point 26 °F    
Average Humidity 74    
Maximum Humidity 93    
Minimum Humidity 37    
Precipitation  
Precipitation 0.00 in 0.02 in 0.52 in (2014)
Month to date precipitation 0.65  
Year to date precipitation 0.65  
Sea Level Pressure  
Sea Level Pressure 30.27 in    
Wind  
Wind Speed 2 mph (ENE)    
Max Wind Speed 7 mph    
Max Gust Speed -    
Visibility 10 miles    
Events      
T = Trace of Precipitation, MM = Missing Value Source: NWS Daily Summary

Daily Weather History Graph

Daily Weather History Graph

Search for Another Location

Airport or City:

Trip Planner

Search our weather history database for the weather conditions in past years. The results will help you decide how hot, cold, wet, or windy it might be!

Date:

Astronomy

Jan. 31, 2013 Rise Set
Actual Time 7:18 AM MST 5:33 PM MST
Civil Twilight 6:50 AM MST 6:01 PM MST
Nautical Twilight 6:18 AM MST 6:33 PM MST
Astronomical Twilight 5:47 AM MST 7:04 PM MST
Moon 10:34 PM MST 9:23 AM MST
Length of Visible Light 11h 10m
Length of Day
10h 14m
Waning Gibbous, 79% of the Moon is Illuminated
Jan 31
Waning Gibbous
Feb 3
Last Quarter
Feb 10
New
Feb 17
First Quarter
Feb 25
Full

Hourly Weather History & Observations

Time (MST) Temp. Windchill Dew Point Humidity Pressure Visibility Wind Dir Wind Speed Gust Speed Precip Events Conditions
12:15 AM 30.0 °F 26.5 °F 24.8 °F 81% 30.19 in 10.0 mi East 3.5 mph - N/A   Overcast
12:35 AM 29.8 °F - 24.6 °F 81% 30.19 in 10.0 mi Calm Calm - N/A   Overcast
12:55 AM 29.3 °F 25.6 °F 24.4 °F 82% 30.19 in 10.0 mi ESE 3.5 mph - N/A   Overcast
1:15 AM 29.3 °F - 24.6 °F 83% 30.19 in 10.0 mi Calm Calm - N/A   Overcast
1:35 AM 29.3 °F - 25.2 °F 85% 30.19 in 10.0 mi Calm Calm - N/A   Overcast
1:55 AM 29.3 °F - 25.2 °F 85% 30.19 in 10.0 mi Calm Calm - N/A   Overcast
2:15 AM 28.6 °F - 24.8 °F 86% 30.20 in 10.0 mi Calm Calm - N/A   Overcast
2:35 AM 28.9 °F - 25.3 °F 86% 30.21 in 10.0 mi Calm Calm - N/A   Overcast
2:55 AM 29.3 °F - 24.8 °F 83% 30.21 in 10.0 mi Calm Calm - N/A   Overcast
3:15 AM 29.7 °F 26.1 °F 25.3 °F 84% 30.22 in 10.0 mi NE 3.5 mph - N/A   Overcast
3:35 AM 29.8 °F - 24.6 °F 81% 30.21 in 10.0 mi Calm Calm - N/A   Overcast
3:55 AM 28.6 °F 24.8 °F 25.3 °F 88% 30.22 in 10.0 mi WSW 3.5 mph - N/A   Overcast
4:15 AM 28.2 °F - 25.7 °F 90% 30.22 in 10.0 mi Calm Calm - N/A   Overcast
4:35 AM 28.0 °F - 25.3 °F 90% 30.23 in 10.0 mi Calm Calm - N/A   Overcast
4:55 AM 27.5 °F 22.2 °F 25.0 °F 90% 30.24 in 10.0 mi ESE 4.6 mph - N/A   Overcast
5:15 AM 26.6 °F - 24.8 °F 93% 30.24 in 10.0 mi Calm Calm - N/A   Overcast
5:35 AM 26.4 °F - 24.4 °F 92% 30.25 in 10.0 mi Calm Calm - N/A   Mostly Cloudy
5:55 AM 26.4 °F - 24.4 °F 92% 30.25 in 10.0 mi Calm Calm - N/A   Scattered Clouds
6:15 AM 27.1 °F - 24.6 °F 90% 30.26 in 10.0 mi Calm Calm - N/A   Mostly Cloudy
6:35 AM 28.2 °F - 24.3 °F 85% 30.26 in 10.0 mi Calm Calm - N/A   Overcast
6:55 AM 27.5 °F 22.2 °F 24.1 °F 87% 30.26 in 10.0 mi ESE 4.6 mph - N/A   Overcast
7:15 AM 26.6 °F - 24.3 °F 91% 30.28 in 10.0 mi Calm Calm - N/A   Overcast
7:35 AM 26.6 °F - 23.9 °F 90% 30.29 in 10.0 mi Calm Calm - N/A   Overcast
7:55 AM 27.1 °F 23.2 °F 24.4 °F 90% 30.30 in 10.0 mi WSW 3.5 mph - N/A   Overcast
8:15 AM 27.5 °F - 24.6 °F 89% 30.31 in 10.0 mi Calm Calm - N/A   Overcast
8:35 AM 28.4 °F - 25.0 °F 87% 30.32 in 10.0 mi Calm Calm - N/A   Overcast
8:55 AM 29.8 °F - 24.8 °F 81% 30.33 in 10.0 mi Calm Calm - N/A   Mostly Cloudy
9:15 AM 31.1 °F - 25.2 °F 79% 30.34 in 10.0 mi Calm Calm - N/A   Mostly Cloudy
9:35 AM 30.9 °F - 24.8 °F 78% 30.35 in 10.0 mi Calm Calm - N/A   Overcast
9:55 AM 31.6 °F - 25.2 °F 77% 30.36 in 10.0 mi Calm Calm - N/A   Overcast
10:15 AM 31.6 °F - 25.0 °F 76% 30.36 in 10.0 mi Calm Calm - N/A   Overcast
10:35 AM 32.4 °F - 25.9 °F 77% 30.36 in 10.0 mi Calm Calm - N/A   Overcast
10:55 AM 33.6 °F - 26.1 °F 74% 30.36 in 10.0 mi Calm Calm - N/A   Overcast
11:15 AM 35.8 °F 33.0 °F 28.0 °F 73% 30.36 in 10.0 mi NE 3.5 mph - N/A   Mostly Cloudy
11:35 AM 37.8 °F 34.2 °F 28.9 °F 71% 30.35 in 10.0 mi ENE 4.6 mph - N/A   Clear
11:55 AM 38.5 °F 34.1 °F 28.8 °F 68% 30.33 in 10.0 mi ENE 5.8 mph - N/A   Clear
12:15 PM 40.3 °F 36.3 °F 29.5 °F 65% 30.31 in 10.0 mi East 5.8 mph - N/A   Clear
12:35 PM 42.1 °F 37.7 °F 27.7 °F 57% 30.30 in 10.0 mi ENE 6.9 mph - N/A   Clear
12:55 PM 43.0 °F 39.5 °F 27.9 °F 55% 30.29 in 10.0 mi East 5.8 mph - N/A   Clear
1:15 PM 43.9 °F 41.3 °F 28.0 °F 54% 30.28 in 10.0 mi ESE 4.6 mph - N/A   Clear
1:35 PM 44.2 °F 42.7 °F 25.7 °F 48% 30.27 in 10.0 mi ESE 3.5 mph - N/A   Clear
1:55 PM 45.0 °F 42.6 °F 26.4 °F 48% 30.26 in 10.0 mi East 4.6 mph - N/A   Clear
2:15 PM 45.5 °F 44.2 °F 24.1 °F 43% 30.26 in 10.0 mi ENE 3.5 mph - N/A   Clear
2:35 PM 45.9 °F 43.6 °F 24.4 °F 43% 30.25 in 10.0 mi ENE 4.6 mph - N/A   Scattered Clouds
2:55 PM 46.0 °F 44.8 °F 22.6 °F 40% 30.25 in 10.0 mi ENE 3.5 mph - N/A   Mostly Cloudy
3:15 PM 46.4 °F - 22.8 °F 39% 30.24 in 10.0 mi Calm Calm - N/A   Scattered Clouds
3:35 PM 46.2 °F 43.3 °F 22.5 °F 39% 30.24 in 10.0 mi NE 5.8 mph - N/A   Clear
3:55 PM 46.0 °F - 21.2 °F 37% 30.24 in 10.0 mi Calm Calm - N/A   Clear
4:15 PM 46.2 °F 45.0 °F 22.5 °F 39% 30.24 in 10.0 mi East 3.5 mph - N/A   Clear
4:35 PM 46.0 °F 44.8 °F 23.0 °F 40% 30.24 in 10.0 mi East 3.5 mph - N/A   Clear
4:55 PM 45.5 °F 44.2 °F 22.5 °F 40% 30.24 in 10.0 mi SE 3.5 mph - N/A   Scattered Clouds
5:15 PM 44.6 °F - 24.4 °F 45% 30.25 in 10.0 mi Calm Calm - N/A   Scattered Clouds
5:35 PM 43.7 °F - 24.4 °F 47% 30.25 in 10.0 mi Calm Calm - N/A   Clear
5:55 PM 41.4 °F - 27.1 °F 57% 30.26 in 10.0 mi Calm Calm - N/A   Clear
6:15 PM 41.0 °F - 24.6 °F 52% 30.27 in 10.0 mi Calm Calm - N/A   Scattered Clouds
6:35 PM 37.8 °F 34.2 °F 27.7 °F 67% 30.27 in 10.0 mi SSW 4.6 mph - N/A   Overcast
6:55 PM 37.0 °F - 29.5 °F 74% 30.28 in 10.0 mi Calm Calm - N/A   Overcast
7:15 PM 34.7 °F - 29.1 °F 80% 30.28 in 10.0 mi Calm Calm - N/A   Scattered Clouds
7:35 PM 33.8 °F 30.8 °F 28.2 °F 80% 30.28 in 10.0 mi ENE 3.5 mph - N/A   Scattered Clouds
7:55 PM 34.2 °F 31.2 °F 29.3 °F 82% 30.28 in 10.0 mi East 3.5 mph - N/A   Clear
8:15 PM 33.6 °F - 29.7 °F 85% 30.30 in 10.0 mi Calm Calm - N/A   Clear
8:35 PM 33.3 °F - 29.3 °F 85% 30.30 in 10.0 mi Calm Calm - N/A   Scattered Clouds
8:55 PM 33.3 °F - 29.3 °F 85% 30.30 in 10.0 mi Calm Calm - N/A   Scattered Clouds
9:15 PM 32.4 °F - 29.1 °F 88% 30.31 in 10.0 mi Calm Calm - N/A   Scattered Clouds
9:35 PM 31.8 °F 28.5 °F 28.0 °F 86% 30.30 in 10.0 mi NNE 3.5 mph - N/A   Scattered Clouds
9:55 PM 30.9 °F - 27.5 °F 87% 30.31 in 10.0 mi Calm Calm - N/A   Clear
10:15 PM 31.5 °F - 27.3 °F 85% 30.31 in 10.0 mi Calm Calm - N/A   Clear
10:35 PM 30.9 °F - 27.1 °F 86% 30.31 in 10.0 mi Calm Calm - N/A   Clear
10:55 PM 31.5 °F 26.8 °F 27.5 °F 85% 30.31 in 10.0 mi NNE 4.6 mph - N/A   Clear
11:15 PM 30.6 °F 24.7 °F 26.6 °F 85% 30.30 in 10.0 mi NE 5.8 mph - N/A   Clear
11:35 PM 31.1 °F 24.5 °F 27.5 °F 87% 30.30 in 10.0 mi NNE 6.9 mph - N/A   Clear
11:55 PM 32.2 °F - 25.0 °F 75% 30.30 in 10.0 mi Calm Calm - N/A   Clear